• en Belgique
  • Liste des pays
  • À 7 jours
  • Température de l'eau
  • Carte satellitaire
  • Carte météo
  • Widgets météo
  • user-avatar
    Se connecter

    Météo par heure à Edegem

    Ce jour, 21 Octobre, Dimanche

    Heure Température Précipitation Vent Pression Humidité
    00:00 +9°C° 0 mm 1 m/s 771 mmHg 79%
    01:00 +9°C° 0 mm 1 m/s 771 mmHg 80%
    02:00 +9°C° 0 mm 1 m/s 770 mmHg 80%
    03:00 +9°C° 0 mm 1 m/s 770 mmHg 81%
    04:00 +9°C° 0 mm 1 m/s 770 mmHg 81%
    05:00 +8°C° 0 mm 1 m/s 770 mmHg 81%
    06:00 +8°C° 0 mm 1 m/s 770 mmHg 78%
    07:00 +10°C° 0 mm 1 m/s 770 mmHg 73%
    08:00 +11°C° 0 mm 1 m/s 770 mmHg 67%
    09:00 +13°C° 0 mm 2 m/s 770 mmHg 62%
    10:00 +14°C° 0 mm 1 m/s 769 mmHg 58%
    11:00 +16°C° 0 mm 1 m/s 769 mmHg 54%
    12:00 +18°C° 0 mm 1 m/s 769 mmHg 50%
    13:00 +18°C° 0 mm 1 m/s 769 mmHg 50%
    14:00 +18°C° 0 mm 1 m/s 768 mmHg 51%
    15:00 +19°C° 0 mm 1 m/s 768 mmHg 52%
    16:00 +16°C° 0 mm 1 m/s 768 mmHg 57%
    17:00 +14°C° 0 mm 1 m/s 768 mmHg 62%
    18:00 +13°C° 0 mm 1 m/s 768 mmHg 68%
    19:00 +12°C° 0 mm 1 m/s 768 mmHg 70%
    20:00 +12°C° 0 mm 1 m/s 768 mmHg 72%
    21:00 +12°C° 0 mm 1 m/s 768 mmHg 74%
    22:00 +12°C° 0 mm 1 m/s 769 mmHg 77%
    23:00 +12°C° 0 mm 1 m/s 769 mmHg 80%

    Demain, 22 Octobre, Lundi

    Heure Température Précipitation Vent Pression Humidité
    00:00 +11°C° 0 mm 1 m/s 769 mmHg 83%
    01:00 +12°C° 0 mm 1 m/s 769 mmHg 85%
    02:00 +12°C° 0 mm 2 m/s 769 mmHg 87%
    03:00 +12°C° 0 mm 2 m/s 769 mmHg 89%
    04:00 +12°C° 0.1 mm 3 m/s 770 mmHg 88%
    05:00 +12°C° 0.1 mm 4 m/s 770 mmHg 87%
    06:00 +12°C° 0.1 mm 5 m/s 771 mmHg 86%
    07:00 +12°C° 0.1 mm 5 m/s 771 mmHg 82%
    08:00 +11°C° 0.1 mm 6 m/s 772 mmHg 78%
    09:00 +11°C° 0.1 mm 6 m/s 772 mmHg 74%
    10:00 +13°C° 0 mm 6 m/s 773 mmHg 69%
    11:00 +13°C° 0 mm 6 m/s 773 mmHg 63%
    12:00 +14°C° 0 mm 6 m/s 774 mmHg 58%
    13:00 +14°C° 0 mm 6 m/s 774 mmHg 57%
    14:00 +14°C° 0 mm 5 m/s 774 mmHg 57%
    15:00 +13°C° 0 mm 5 m/s 774 mmHg 56%
    16:00 +12°C° 0 mm 4 m/s 774 mmHg 60%
    17:00 +11°C° 0 mm 3 m/s 774 mmHg 64%
    18:00 +9°C° 0 mm 2 m/s 775 mmHg 67%
    19:00 +9°C° 0 mm 2 m/s 775 mmHg 69%
    20:00 +8°C° 0 mm 2 m/s 775 mmHg 72%
    21:00 +8°C° 0 mm 1 m/s 775 mmHg 74%
    22:00 +8°C° 0 mm 1 m/s 775 mmHg 75%
    23:00 +7°C° 0 mm 2 m/s 775 mmHg 76%

    Après-demain, 23 Octobre, Mardi

    Heure Température Précipitation Vent Pression Humidité
    00:00 +7°C° 0 mm 2 m/s 775 mmHg 77%
    01:00 +7°C° 0 mm 2 m/s 774 mmHg 78%
    02:00 +7°C° 0 mm 3 m/s 774 mmHg 78%
    03:00 +6°C° 0 mm 4 m/s 773 mmHg 79%
    04:00 +6°C° 0 mm 4 m/s 773 mmHg 81%
    05:00 +7°C° 0 mm 4 m/s 772 mmHg 82%
    06:00 +7°C° 0 mm 4 m/s 772 mmHg 84%
    07:00 +8°C° 0 mm 5 m/s 772 mmHg 80%
    08:00 +9°C° 0 mm 5 m/s 771 mmHg 77%
    09:00 +11°C° 0 mm 6 m/s 771 mmHg 73%
    10:00 +11°C° 0 mm 6 m/s 771 mmHg 72%
    11:00 +13°C° 0 mm 6 m/s 770 mmHg 70%
    12:00 +13°C° 0 mm 6 m/s 770 mmHg 68%
    13:00 +14°C° 0 mm 6 m/s 769 mmHg 68%
    14:00 +14°C° 0 mm 6 m/s 769 mmHg 67%
    15:00 +14°C° 0 mm 6 m/s 769 mmHg 67%
    16:00 +13°C° 0 mm 6 m/s 769 mmHg 70%
    17:00 +13°C° 0 mm 5 m/s 769 mmHg 72%
    18:00 +12°C° 0 mm 4 m/s 769 mmHg 75%
    19:00 +12°C° 0 mm 4 m/s 769 mmHg 78%
    20:00 +12°C° 0 mm 4 m/s 769 mmHg 80%
    21:00 +12°C° 0 mm 4 m/s 769 mmHg 83%
    22:00 +12°C° 0 mm 4 m/s 769 mmHg 84%
    23:00 +13°C° 0 mm 4 m/s 769 mmHg 85%

    24 Octobre, Mercredi

    Heure Température Précipitation Vent Pression Humidité
    00:00 +13°C° 0 mm 5 m/s 769 mmHg 85%
    01:00 +13°C° 0 mm 4 m/s 769 mmHg 86%
    02:00 +13°C° 0 mm 4 m/s 768 mmHg 87%
    03:00 +13°C° 0 mm 4 m/s 768 mmHg 88%
    04:00 +14°C° 0 mm 4 m/s 768 mmHg 88%
    05:00 +14°C° 0 mm 4 m/s 768 mmHg 88%
    06:00 +14°C° 0 mm 4 m/s 768 mmHg 87%
    07:00 +15°C° 0 mm 5 m/s 768 mmHg 86%
    08:00 +15°C° 0 mm 5 m/s 769 mmHg 84%
    09:00 +16°C° 0 mm 5 m/s 769 mmHg 82%
    10:00 +16°C° 0 mm 5 m/s 769 mmHg 81%
    11:00 +16°C° 0 mm 5 m/s 769 mmHg 79%
    12:00 +17°C° 0 mm 4 m/s 769 mmHg 78%
    13:00 +17°C° 0 mm 4 m/s 769 mmHg 79%
    14:00 +17°C° 0 mm 4 m/s 769 mmHg 80%
    15:00 +17°C° 0 mm 4 m/s 768 mmHg 81%
    16:00 +16°C° 0 mm 3 m/s 768 mmHg 83%
    17:00 +16°C° 0 mm 3 m/s 768 mmHg 85%
    18:00 +14°C° 0 mm 3 m/s 768 mmHg 88%
    19:00 +15°C° 0 mm 2 m/s 768 mmHg 88%
    20:00 +15°C° 0 mm 2 m/s 768 mmHg 88%
    21:00 +15°C° 0 mm 2 m/s 768 mmHg 89%
    22:00 +15°C° 0 mm 2 m/s 768 mmHg 89%
    23:00 +14°C° 0 mm 3 m/s 768 mmHg 89%

    25 Octobre, Jeudi

    Heure Température Précipitation Vent Pression Humidité
    00:00 +13°C° 0 mm 3 m/s 768 mmHg 90%
    01:00 +13°C° 0 mm 3 m/s 767 mmHg 91%
    02:00 +13°C° 0 mm 3 m/s 767 mmHg 91%
    03:00 +12°C° 0 mm 3 m/s 766 mmHg 92%
    04:00 +12°C° 0 mm 3 m/s 766 mmHg 92%
    05:00 +12°C° 0 mm 3 m/s 766 mmHg 92%
    06:00 +12°C° 0 mm 3 m/s 766 mmHg 91%
    07:00 +12°C° 0 mm 3 m/s 765 mmHg 87%
    08:00 +13°C° 0 mm 3 m/s 765 mmHg 83%
    09:00 +13°C° 0 mm 3 m/s 765 mmHg 78%
    10:00 +14°C° 0 mm 3 m/s 765 mmHg 76%
    11:00 +14°C° 0 mm 3 m/s 765 mmHg 73%
    12:00 +14°C° 0 mm 3 m/s 764 mmHg 70%
    13:00 +15°C° 0 mm 2 m/s 764 mmHg 68%
    14:00 +15°C° 0 mm 2 m/s 763 mmHg 67%
    15:00 +16°C° 0 mm 2 m/s 763 mmHg 66%
    16:00 +14°C° 0 mm 2 m/s 762 mmHg 72%
    17:00 +13°C° 0 mm 2 m/s 762 mmHg 79%
    18:00 +11°C° 0 mm 1 m/s 762 mmHg 85%
    19:00 +11°C° 0 mm 1 m/s 762 mmHg 87%
    20:00 +10°C° 0 mm 1 m/s 761 mmHg 88%
    21:00 +10°C° 0 mm 1 m/s 761 mmHg 90%
    22:00 +9°C° 0 mm 2 m/s 760 mmHg 91%
    23:00 +8°C° 0 mm 2 m/s 760 mmHg 92%

    26 Octobre, Vendredi

    Heure Température Précipitation Vent Pression Humidité
    00:00 +8°C° 0 mm 2 m/s 759 mmHg 93%
    01:00 +8°C° 0 mm 2 m/s 759 mmHg 93%
    02:00 +7°C° 0 mm 3 m/s 758 mmHg 93%
    03:00 +7°C° 0 mm 3 m/s 758 mmHg 93%
    04:00 +7°C° 0 mm 3 m/s 757 mmHg 93%
    05:00 +7°C° 0 mm 3 m/s 757 mmHg 92%
    06:00 +7°C° 0 mm 3 m/s 756 mmHg 92%
    07:00 +8°C° 0 mm 3 m/s 756 mmHg 88%
    08:00 +9°C° 0 mm 3 m/s 756 mmHg 84%
    09:00 +10°C° 0 mm 3 m/s 756 mmHg 81%
    10:00 +10°C° 0.2 mm 3 m/s 755 mmHg 80%
    11:00 +10°C° 0.2 mm 3 m/s 755 mmHg 80%
    12:00 +11°C° 0.2 mm 3 m/s 754 mmHg 80%
    13:00 +11°C° 0.3 mm 3 m/s 754 mmHg 81%
    14:00 +10°C° 0.3 mm 3 m/s 754 mmHg 83%
    15:00 +10°C° 0.3 mm 3 m/s 754 mmHg 84%
    16:00 +10°C° 0.3 mm 3 m/s 754 mmHg 86%
    17:00 +10°C° 0.3 mm 3 m/s 754 mmHg 88%
    18:00 +8°C° 0.3 mm 4 m/s 754 mmHg 89%
    19:00 +9°C° 0.6 mm 3 m/s 754 mmHg 88%
    20:00 +9°C° 0.6 mm 3 m/s 754 mmHg 86%
    21:00 +9°C° 0.6 mm 3 m/s 754 mmHg 84%
    22:00 +9°C° 0.3 mm 3 m/s 754 mmHg 83%
    23:00 +8°C° 0.3 mm 3 m/s 753 mmHg 82%
    Voir plus